Location: Rio Negrinho
(26.2394°S, 49.4999°W)
Time: 18:23:16
(UTC+00:00)

Envisat - Pass Details

Date: 28 July 2021
Orbit: 764 x 766 km, 98.2° (Epoch: 17 September)

Event Time Altitude Azimuth Distance (km) Brightness Sun altitude
Rises 09:12:42 0° 328° (NNW) 3,216 6.1 -10.8°
Reaches altitude 10° 09:16:29 10° 298° (WNW) 2,302 5.1 -10.0°
Maximum altitude 09:18:31 12° 274° (W) 2,148 4.7 -9.5°
Enters shadow 09:19:49 11° 259° (WSW) 2,218 4.7 -9.2°
